Time_in_sec,Mx,My,Mz
1323443933.85264564,-0.48103958,0.38991192,-0.83419615
1323443933.90551329,-0.47949246,0.39098206,-0.83424658
1323443933.95352936,-0.48153540,0.39244306,-0.83347565
1323443934.00550890,-0.48127788,0.39087445,-0.83370560
1323443934.05348992,-0.48338431,0.39027590,-0.83203000
1323443934.10461378,-0.48205727,0.39160556,-0.83362591
1323443934.15750384,-0.48162270,0.39062902,-0.83295697
1323443934.20565391,-0.48131639,0.39112276,-0.83434761
1323443934.25299692,-0.48156500,0.38977462,-0.83205426
1323443934.30454516,-0.48241767,0.39148360,-0.83313429
1323443934.36025882,-0.48114491,0.39072862,-0.83139992
1323443934.40552521,-0.48062581,0.39171049,-0.83354813
1323443934.45668840,-0.48301286,0.39087766,-0.83226919
1323443934.50503802,-0.48167589,0.39088014,-0.83385509
1323443934.55752110,-0.48268640,0.39086223,-0.83110249
1323443934.60565972,-0.48071662,0.39134297,-0.83291233
1323443934.65368962,-0.48116228,0.39109337,-0.83165872
1323443934.70553684,-0.48120451,0.39086047,-0.83242518
1323443934.75362611,-0.48107159,0.39049706,-0.83241528
1323443934.80552387,-0.48188585,0.39099386,-0.83297402
1323443934.85365915,-0.48186567,0.39048469,-0.83041662
1323443934.90467286,-0.48118076,0.39039737,-0.83433503
1323443934.95350528,-0.48274329,0.39063209,-0.83212501
1323443935.00612998,-0.48125115,0.39219469,-0.83307540
1323443935.05274081,-0.48244527,0.39050159,-0.83146960
1323443935.10472083,-0.48166764,0.39075807,-0.83372611
1323443935.15349555,-0.48078993,0.39157450,-0.83189696
1323443935.20549512,-0.48108986,0.39098248,-0.83267498
1323443935.25353742,-0.48168135,0.39085779,-0.83168548
1323443935.30464935,-0.48079276,0.39097261,-0.83202046
1323443935.35332918,-0.48256004,0.38866943,-0.82916546
1323443935.40561700,-0.48109791,0.39303225,-0.83256245
1323443935.45257354,-0.48051322,0.38939983,-0.83186626
1323443935.50458622,-0.48051119,0.39108622,-0.83162296
1323443935.55351996,-0.48336956,0.39049065,-0.82947809
1323443935.60551882,-0.48066524,0.39133316,-0.83201605
1323443935.65355110,-0.48207572,0.39038083,-0.83183134
1323443935.70463967,-0.48219207,0.39146399,-0.83146256
1323443935.75483656,-0.48233899,0.38903552,-0.82979411
1323443935.80555058,-0.47961611,0.39153790,-0.82953495
1323443935.85257626,-0.48190501,0.39107123,-0.82876378
1323443935.91343451,-0.48170426,0.39098263,-0.83207053
1323443935.95505238,-0.48205599,0.39459407,-0.83096689
1323443936.00550961,-0.48139235,0.39193386,-0.83103919
1323443936.05350375,-0.48298725,0.38964456,-0.82970637
1323443936.10368466,-0.48072478,0.39168260,-0.83074552
1323443936.15358949,-0.48253065,0.38941011,-0.83082831
1323443936.20458508,-0.48083770,0.39035538,-0.83061457
1323443936.25354362,-0.48365766,0.38929394,-0.83012354
1323443936.30463362,-0.47988760,0.39106092,-0.82980174
1323443936.35331440,-0.48340717,0.39061832,-0.83011925
1323443936.40551138,-0.48255053,0.39206457,-0.83084834
1323443936.45353174,-0.47945470,0.39203584,-0.83118886
1323443936.50457168,-0.48162073,0.39156914,-0.83053857
1323443936.55358219,-0.48103854,0.39022639,-0.82960361
1323443936.60280657,-0.47920057,0.39287758,-0.83118093
1323443936.65355420,-0.48086706,0.39036098,-0.83112675
1323443936.70479321,-0.48210496,0.39135030,-0.83222276
1323443936.75317717,-0.48213434,0.39060959,-0.83055991
1323443936.80552030,-0.48045340,0.39119568,-0.83059949
1323443936.85349965,-0.48170510,0.39132085,-0.82977563
1323443936.90513039,-0.47995082,0.39167541,-0.83083063
1323443936.96552300,-0.48163822,0.39097005,-0.83091813
1323443937.00621581,-0.48175448,0.39227077,-0.82825357
1323443937.05364895,-0.48084426,0.38927227,-0.83086246
1323443937.10504198,-0.47996086,0.39203876,-0.83096141
1323443937.15254521,-0.48139980,0.39097139,-0.83128798
1323443937.20551515,-0.48184803,0.39279392,-0.83209133
1323443937.25264192,-0.48066819,0.38902113,-0.83008528
1323443937.30465961,-0.48122281,0.39134589,-0.83268487
1323443937.35350132,-0.48138151,0.39048597,-0.83102822
1323443937.40504098,-0.47884217,0.39205945,-0.83409095
1323443937.45366240,-0.48037744,0.39038458,-0.83390796
1323443937.50453162,-0.48227188,0.39135873,-0.83287013
1323443937.55676293,-0.48066163,0.39085054,-0.83201241
1323443937.60551572,-0.48096961,0.39230826,-0.83267784
1323443937.65690112,-0.48160249,0.39086613,-0.83257467
1323443937.70464540,-0.48012424,0.39134699,-0.83390093
1323443937.75351954,-0.48103330,0.38832101,-0.83201474
1323443937.80455613,-0.48114204,0.39207679,-0.83345145
1323443937.85350919,-0.48218843,0.39098138,-0.83145893
1323443937.90479445,-0.48004904,0.39109170,-0.83261871
1323443937.95352173,-0.48179051,0.39075810,-0.83360523
1323443938.00552249,-0.48044792,0.39196432,-0.83494413
1323443938.05356932,-0.48073685,0.39035955,-0.83111960
1323443938.10564423,-0.47982430,0.39193904,-0.83312291
1323443938.15350246,-0.48192334,0.39208537,-0.83349437
1323443938.20556307,-0.48241496,0.39112163,-0.83313155
1323443938.25267315,-0.48240948,0.39061525,-0.83083028
1323443938.30455089,-0.48122469,0.39136961,-0.83498251
1323443938.35354829,-0.48286536,0.38954762,-0.83212399
1323443938.40551066,-0.48343751,0.39052698,-0.83292812
1323443938.46461511,-0.48296970,0.39173624,-0.83367687
1323443938.50559473,-0.48288789,0.39278162,-0.82985091
1323443938.55771732,-0.48297730,0.38906363,-0.83187139
1323443938.60569692,-0.48114192,0.39304066,-0.83333069
1323443938.65261030,-0.48211950,0.39306325,-0.83453315
1323443938.70551372,-0.48008302,0.39073673,-0.83325619
1323443938.75540781,-0.48316148,0.39040068,-0.83265686
1323443938.80550766,-0.48073035,0.39197138,-0.83534259
1323443938.85251307,-0.48143005,0.39109764,-0.83180106
1323443938.90550900,-0.48051307,0.39110997,-0.83392060
1323443938.95350552,-0.48180622,0.38991770,-0.83398300
1323443939.00459957,-0.48061201,0.39257464,-0.83546799
1323443939.05562997,-0.48189962,0.39087600,-0.83322918
1323443939.10455322,-0.48110723,0.39209354,-0.83510888
1323443939.15275025,-0.48016363,0.39171594,-0.83454388
1323443939.20551920,-0.47989586,0.39171171,-0.83440155
1323443939.26552963,-0.48248473,0.39065298,-0.83440834
1323443939.30463791,-0.48067236,0.39326230,-0.83190256
1323443939.36551809,-0.48144585,0.38929337,-0.83229959
1323443939.40533137,-0.48045117,0.39480981,-0.83011466
1323443939.45251465,-0.48129901,0.39075798,-0.83408880
1323443939.50554442,-0.48136678,0.39122945,-0.83294719
1323443939.55257607,-0.48214379,0.38870701,-0.83322710
1323443939.60553217,-0.48158136,0.39172888,-0.83436650
1323443939.65252137,-0.48213249,0.39186087,-0.83490819
1323443939.70451188,-0.48090091,0.39171615,-0.83381855
1323443939.75361586,-0.48220593,0.39038226,-0.83183849
1323443939.80506968,-0.48211035,0.39282054,-0.83440328
1323443939.85264349,-0.48141468,0.38904646,-0.83178556
1323443939.90506983,-0.47978023,0.39267692,-0.83452970
1323443939.95257306,-0.48172346,0.39158872,-0.83233118
1323443940.00836229,-0.48195636,0.39182732,-0.83183515
1323443940.05698395,-0.48252523,0.38868618,-0.83082289
1323443940.10464263,-0.48076969,0.39255792,-0.83368969
1323443940.16411400,-0.48044974,0.39145935,-0.83277094
1323443940.20549750,-0.48041907,0.39518854,-0.83177477
1323443940.25651121,-0.48262316,0.39024776,-0.83007360
1323443940.30493736,-0.48193616,0.39206442,-0.83145279
1323443940.35650158,-0.48291689,0.38784727,-0.83096600
1323443940.40550828,-0.48144916,0.39266759,-0.83194095
1323443940.45651317,-0.48104224,0.39049146,-0.83190310
1323443940.50551367,-0.48202893,0.39075676,-0.83323544
1323443940.55291200,-0.48183903,0.39084107,-0.82990718
1323443940.60492611,-0.48095867,0.39107797,-0.83037114
1323443940.65656972,-0.48261949,0.39051142,-0.83224499
1323443940.71352720,-0.48042575,0.39239529,-0.82996839
1323443940.75293159,-0.48107025,0.39423183,-0.83193129
1323443940.80550146,-0.48109332,0.39264655,-0.83026206
1323443940.85364246,-0.48218948,0.38939187,-0.82940555
1323443940.90491486,-0.48077425,0.39241493,-0.83151925
1323443940.95351291,-0.48196271,0.39192560,-0.82966644
1323443941.00567007,-0.48001015,0.39395255,-0.82931852
1323443941.05763507,-0.48152724,0.39082843,-0.82899660
1323443941.10451937,-0.48049745,0.39045781,-0.82919270
1323443941.15652704,-0.48215729,0.39073446,-0.83094496
1323443941.20551062,-0.48031855,0.39155483,-0.83046705
1323443941.26454306,-0.48151606,0.39227211,-0.82862335
1323443941.30567026,-0.48148021,0.39260334,-0.82568824
1323443941.35353732,-0.48234987,0.38973713,-0.82762998
1323443941.40452766,-0.47972700,0.39189711,-0.82916075
1323443941.45264840,-0.47984266,0.39093187,-0.82903254
1323443941.50452137,-0.48120263,0.39083672,-0.83012754
1323443941.55254126,-0.48287627,0.38950294,-0.82778484
1323443941.60551643,-0.48215902,0.39119336,-0.82865095
1323443941.65253139,-0.48132089,0.39119732,-0.82988131
1323443941.70454502,-0.48088801,0.39142597,-0.82909340
1323443941.75650692,-0.48077160,0.39056039,-0.82716638
1323443941.80613995,-0.48255339,0.39071640,-0.82879680
1323443941.85353398,-0.48063672,0.39166582,-0.82920897
1323443941.90553188,-0.48068810,0.39167559,-0.83010530
1323443941.95256305,-0.48204607,0.39252055,-0.82878184
1323443942.00550628,-0.48126036,0.39094481,-0.82885516
1323443942.05336499,-0.48225355,0.39034459,-0.82813954
1323443942.10539603,-0.48045504,0.39261845,-0.82818478
1323443942.15348339,-0.48223436,0.38973850,-0.82787889
1323443942.20567131,-0.48200583,0.39181334,-0.83043379
1323443942.25335908,-0.48221415,0.38997561,-0.82749659
1323443942.31293845,-0.48189747,0.39299756,-0.82839423
1323443942.35327721,-0.48236111,0.39612499,-0.82703799
1323443942.40551162,-0.47898424,0.39139056,-0.82758480
1323443942.45323443,-0.48102838,0.39082688,-0.82935208
1323443942.50470543,-0.48146105,0.39252597,-0.82989848
1323443942.55351186,-0.48145124,0.38948861,-0.82783419
1323443942.60463071,-0.48041287,0.39263380,-0.82971412
1323443942.65322399,-0.48279178,0.39146134,-0.83060205
1323443942.70544147,-0.48224247,0.39157069,-0.83006215
1323443942.75384665,-0.48102558,0.39142877,-0.82922858
1323443942.80550671,-0.48123640,0.39240944,-0.83052349
1323443942.85311890,-0.48154211,0.38890350,-0.82949418
1323443942.90509009,-0.48009109,0.39204019,-0.83096856
1323443942.95349789,-0.48190859,0.39230013,-0.83094245
1323443943.00554800,-0.48090264,0.39217505,-0.83152455
1323443943.05300713,-0.48121452,0.39069512,-0.82808506
1323443943.10453081,-0.48157126,0.39083681,-0.82976484
1323443943.15300441,-0.48201397,0.39289927,-0.83044201
1323443943.20550919,-0.47968397,0.39179179,-0.83068919
1323443943.26499009,-0.48229215,0.38962904,-0.82890236
1323443943.30452704,-0.48151961,0.39297232,-0.82633120
1323443943.35545874,-0.48069736,0.39020815,-0.82818085
1323443943.40463853,-0.48176020,0.39084941,-0.83079636
1323443943.45342684,-0.48255903,0.38951263,-0.82904381
1323443943.50457191,-0.47976631,0.39322993,-0.82968289
1323443943.55294919,-0.48198497,0.38925579,-0.82811707
1323443943.60550976,-0.48093024,0.39119303,-0.82985985
1323443943.65349650,-0.48195457,0.39083970,-0.82965827
1323443943.70466900,-0.48107794,0.39059538,-0.83024657
1323443943.75229812,-0.48291206,0.38938928,-0.82842410
1323443943.80453849,-0.48134267,0.39312923,-0.83002394
1323443943.85753655,-0.48216093,0.39047080,-0.82877350
1323443943.90552282,-0.48128247,0.38998514,-0.82936001
1323443943.95267940,-0.48113918,0.39214996,-0.82885706
1323443944.00474954,-0.48248076,0.39253321,-0.82957155
1323443944.05364966,-0.48131266,0.39032897,-0.82757729
1323443944.10565877,-0.48091623,0.39323860,-0.82936317
1323443944.15349865,-0.48059741,0.39033297,-0.82868677
1323443944.20565796,-0.48222879,0.39072469,-0.82992774
1323443944.25252986,-0.48041040,0.38959783,-0.82777786
1323443944.31354594,-0.48018000,0.39239523,-0.83021015
1323443944.35425639,-0.48141208,0.39576975,-0.82864261
1323443944.40317416,-0.48026347,0.39202628,-0.82944632
1323443944.46463943,-0.48077056,0.39214987,-0.82921976
1323443944.50462842,-0.48050079,0.39308572,-0.82665902
1323443944.55348897,-0.48072764,0.39033440,-0.82869393
1323443944.60601234,-0.48105469,0.39336210,-0.82949924
1323443944.65256572,-0.48062125,0.39057848,-0.82907271
1323443944.70455408,-0.48015264,0.39070323,-0.82994133
1323443944.75256968,-0.48275420,0.39058742,-0.82778585
1323443944.80551887,-0.48024687,0.39274603,-0.82906765
1323443944.85251117,-0.48076054,0.39104021,-0.82691395
1323443944.90456986,-0.48052117,0.39166716,-0.82945788
1323443944.95751071,-0.48158765,0.39204478,-0.82990199
1323443945.00610542,-0.47937480,0.39235869,-0.82748550
1323443945.05256701,-0.48222965,0.39031664,-0.82545781
1323443945.10821533,-0.47994795,0.39174858,-0.82623625
1323443945.15356231,-0.48089993,0.39053807,-0.82487589
1323443945.20552230,-0.48193884,0.39115140,-0.82480961
1323443945.25353694,-0.48166576,0.38945934,-0.82478261
1323443945.30525064,-0.48142794,0.39247289,-0.82479101
1323443945.35508871,-0.48091274,0.39051712,-0.82283437
1323443945.40465093,-0.48229289,0.39093113,-0.82648671
1323443945.45251775,-0.48320252,0.39091739,-0.82423913
1323443945.51328111,-0.48048908,0.39077088,-0.82447213
1323443945.55352497,-0.47983465,0.39618492,-0.82370907
1323443945.60551071,-0.48091713,0.39283055,-0.82489318
1323443945.65249968,-0.48248369,0.38969249,-0.82316989
1323443945.70213413,-0.48229742,0.39078811,-0.82431620
1323443945.75349879,-0.48172510,0.39173648,-0.82327050
1323443945.80648494,-0.48236883,0.39174223,-0.82317823
1323443945.85251951,-0.48336494,0.38957623,-0.82270688
1323443945.90453076,-0.48135284,0.39125374,-0.82362956
1323443945.95250320,-0.48110697,0.39221755,-0.82375056
1323443946.00549746,-0.48121530,0.39125091,-0.82349437
1323443946.05350065,-0.48267713,0.39030838,-0.82420594
1323443946.10471964,-0.48087782,0.39149773,-0.82437104
1323443946.15353632,-0.48108980,0.38992506,-0.82373327
1323443946.20566130,-0.48188478,0.39077964,-0.82391059
1323443946.25711012,-0.48113930,0.38991112,-0.82233196
1323443946.30498242,-0.47977534,0.39316151,-0.82304609
1323443946.35808516,-0.48191607,0.38931641,-0.82237029
1323443946.40597057,-0.48215255,0.39078391,-0.82405293
1323443946.45654583,-0.48160332,0.38992938,-0.82363385
1323443946.50455618,-0.48008162,0.39341408,-0.82383049
1323443946.55349326,-0.48173809,0.38978779,-0.82147050
1323443946.60565352,-0.48044404,0.39160571,-0.82358223
1323443946.65354514,-0.48132348,0.39124817,-0.82311738
1323443946.70477986,-0.48026344,0.39075127,-0.82280040
1323443946.75363064,-0.48022416,0.38941845,-0.82227826
1323443946.80552053,-0.48218566,0.38956198,-0.82251447
1323443946.85268903,-0.48215809,0.38979769,-0.82200414
1323443946.90592337,-0.48135465,0.39149505,-0.82363135
1323443946.95529175,-0.47995526,0.39122126,-0.82189345
1323443947.00527287,-0.48185429,0.39258111,-0.82315600
1323443947.05755830,-0.48337862,0.39042222,-0.82284129
1323443947.10452986,-0.48242304,0.39115012,-0.82419801
1323443947.15258455,-0.48216802,0.39187121,-0.82418919
1323443947.20550585,-0.48124644,0.39149782,-0.82400835
1323443947.25255728,-0.48102939,0.38870868,-0.82282788
1323443947.30459619,-0.48114547,0.39246586,-0.82439262
1323443947.35352087,-0.48253509,0.38895598,-0.82189119
1323443947.40463948,-0.48098680,0.39257950,-0.82387418
1323443947.45363832,-0.48309341,0.39079949,-0.82461518
1323443947.50552678,-0.48233774,0.39127773,-0.82496005
1323443947.55259275,-0.48276335,0.38955513,-0.82126981
1323443947.60552073,-0.48113555,0.39113861,-0.82438260
1323443947.65251851,-0.48216265,0.39092970,-0.82647955
1323443947.70558333,-0.48196715,0.39274648,-0.82737517
1323443947.75256062,-0.48148033,0.39089319,-0.82363397
1323443947.80553031,-0.48183155,0.39127481,-0.82518750
1323443947.85346246,-0.48301640,0.39030290,-0.82333112
1323443947.91343069,-0.47991127,0.39174157,-0.82559603
1323443947.95608401,-0.48090586,0.39449182,-0.82222420
1323443948.00573778,-0.48098618,0.39031354,-0.82641059
1323443948.05354786,-0.48138604,0.38981426,-0.82438689
1323443948.10456491,-0.48111349,0.39188072,-0.82617348
1323443948.15751243,-0.48176298,0.38971883,-0.82644898
1323443948.20457959,-0.47945735,0.39186910,-0.82672077
1323443948.25263596,-0.48218653,0.39042890,-0.82469046
1323443948.30528140,-0.48119605,0.39139113,-0.82540876
1323443948.35264206,-0.48285973,0.38947639,-0.82523108
1323443948.40550756,-0.48212788,0.39020014,-0.82596189
1323443948.45350790,-0.48009929,0.39163354,-0.82662666
1323443948.50459385,-0.47930139,0.39234471,-0.82620507
1323443948.55351472,-0.48210952,0.38993230,-0.82340634
1323443948.60556030,-0.48097762,0.39308307,-0.82591939
1323443948.65357280,-0.47914937,0.39041138,-0.82605529
1323443948.70454168,-0.48096961,0.39103329,-0.82603192
1323443948.75353718,-0.48251021,0.39029995,-0.82355857
1323443948.80552292,-0.48174086,0.39067850,-0.82594407
1323443948.85314751,-0.48074067,0.38763946,-0.82471889
1323443948.90465999,-0.48137844,0.39248687,-0.82619238
1323443948.95373726,-0.47988027,0.39031324,-0.82749861
1323443949.00565577,-0.48052102,0.39210233,-0.82486629
1323443949.05364847,-0.48099807,0.39017192,-0.82436818
1323443949.10553551,-0.48106772,0.39141342,-0.82769924
1323443949.15365958,-0.48160318,0.39163953,-0.82568812
1323443949.20551109,-0.48218468,0.39093387,-0.82686365
1323443949.25358319,-0.48328143,0.39069146,-0.82564580
1323443949.30463123,-0.48015618,0.39140341,-0.82764918
1323443949.35351419,-0.48096237,0.39006802,-0.82602465
1323443949.40565681,-0.48090550,0.39082685,-0.82947302
1323443949.45366192,-0.48134452,0.39262426,-0.82785070
1323443949.50485873,-0.48260108,0.39046115,-0.82739365
1323443949.55366921,-0.48191872,0.39117095,-0.82672316
1323443949.60485244,-0.48099712,0.39154384,-0.82871735
1323443949.65353775,-0.48025614,0.39127859,-0.82714325
1323443949.70567083,-0.48063028,0.39178506,-0.82908183
1323443949.75793815,-0.48147872,0.38947046,-0.82604873
1323443949.80473471,-0.48015618,0.39140341,-0.82764918
1323443949.85272336,-0.48151791,0.39176714,-0.82645017
1323443949.90555072,-0.48106590,0.39117211,-0.82769740
1323443949.95655179,-0.47899249,0.39151260,-0.82771373
1323443950.00556111,-0.48160055,0.39105996,-0.82798123
1323443950.05261779,-0.48231590,0.39009210,-0.82699251
1323443950.10456324,-0.48091820,0.39176977,-0.82731068
1323443950.15498519,-0.48261937,0.39094657,-0.82765341
1323443950.20464802,-0.48215893,0.39141092,-0.82635516
1323443950.25567579,-0.48138237,0.39007792,-0.82655829
1323443950.31354880,-0.48184997,0.39079639,-0.82556802
1323443950.35420871,-0.48129919,0.39560437,-0.82442343
1323443950.40550900,-0.48118681,0.39211226,-0.82515812
1323443950.45256019,-0.48338038,0.39140984,-0.82501817
1323443950.50456023,-0.48143357,0.39126912,-0.82503802
1323443950.55343795,-0.48250106,0.39005724,-0.82342875
1323443950.60452938,-0.48120239,0.39223573,-0.82541513
1323443950.65600109,-0.48092556,0.39102489,-0.82526368
1323443950.70501828,-0.48108867,0.39173213,-0.82349086
1323443950.75562501,-0.48240393,0.38958019,-0.82405818
1323443950.80552864,-0.48201871,0.39029983,-0.82404214
1323443950.86451268,-0.48360243,0.39020053,-0.82451123
1323443950.90462327,-0.48198712,0.39390835,-0.82304513
1323443950.95353651,-0.48285782,0.39019895,-0.82510853
1323443951.00456095,-0.48249647,0.39094654,-0.82777429
1323443951.05607128,-0.48165268,0.39162558,-0.82428682
1323443951.10495591,-0.48034155,0.39018711,-0.82650197
1323443951.15264106,-0.48213512,0.39116541,-0.82596916
1323443951.20561409,-0.47966924,0.39126030,-0.82596225
1323443951.25252557,-0.48129621,0.38933858,-0.82514435
1323443951.30554271,-0.48140055,0.39152721,-0.82669723
1323443951.35612798,-0.48126775,0.39019993,-0.82680815
1323443951.40463305,-0.48004249,0.39089981,-0.82572490
1323443951.45355892,-0.48344824,0.39166373,-0.82617241
1323443951.50518870,-0.48237711,0.39239299,-0.82777804
1323443951.55264688,-0.48122290,0.38910702,-0.82615972
1323443951.60552049,-0.48288617,0.39104775,-0.82549900
1323443951.66553593,-0.48241484,0.39081049,-0.82636487
1323443951.70318985,-0.48070604,0.39452389,-0.82553184
